Regional Weather Roundup
Issued by NWS

Home | Current Version | Previous Version | Graphics & Text | Print | Product List | Glossary On
Versions: 1 2 3 4 5 6 7 8 9 10 11 12 13 14 15 16 17 18 19 20 21 22 23 24 25 26 27 28 29 30 31 32 33 34 35 36 37 38 39 40 41 42 43 44 45 46 47 48 49 50
000
ASUS43 KLOT 162310
RWRIL

ILLINOIS REGIONAL WEATHER ROUNDUP
NATIONAL WEATHER SERVICE CHICAGO/ROMEOVILLE IL
600 PM CDT WED APR 16 2014

NOTE: "FAIR" INDICATES FEW OR NO CLOUDS BELOW 12,000 FEET WITH NO
SIGNIFICANT WEATHER AND/OR OBSTRUCTIONS TO VISIBILITY.

* THESE STATIONS ARE NOT UNDER NWS QUALITY CONTROL. THEY ALSO MAY NOT
  REPORT WEATHER SUCH AS PRECIPITATION OR FOG.

ILZ001-002-007-009-015-016-024-170000-
NORTHWEST ILLINOIS

CITY           SKY/WX    TMP DP  RH WIND       PRES   REMARKS
MOLINE         CLOUDY    54  25  32 SE22G32   29.96F
STERLING*      PTSUNNY   54  28  37 SE14G29   30.02F
SAVANNA*       CLOUDY    54  26  34 SE20G32   29.99S
$$

ILZ003-004-008-010-011-017-018-170000-
NORTH CENTRAL ILLINOIS

CITY           SKY/WX    TMP DP  RH WIND       PRES   REMARKS
ROCKFORD       CLOUDY    52  27  38 S23G29    30.08F
FREEPORT*      CLOUDY    54  32  43 SE24G32   30.03F
ROCHELLE*      MOSUNNY   51  29  43 S22G35    30.06F
DE KALB*       SUNNY     49  26  41 S26G32    30.09F
PERU*          SUNNY     52  28  39 S22G30    30.07F
$$

ILZ005-006-012>014-019>023-170000-
NORTHEAST ILLINOIS

CITY           SKY/WX    TMP DP  RH WIND       PRES   REMARKS
CHICAGO-OHARE  MOSUNNY   51  22  31 SE22      30.13F
CHICAGO-MIDWAY MOSUNNY   52  24  33 SE21G28   30.14F
AURORA         SUNNY     52  26  36 SE24      30.10F
LANSING*       SUNNY     50  23  35 SE18      30.17S
WAUKEGAN       SUNNY     43  27  53 SE16G25   30.14S
DUPAGE AIRPORT SUNNY     52  23  32 SE20G32   30.11F
KANKAKEE*      MOSUNNY   52  27  38 SE17      30.15S
WHEELING       MOSUNNY   51  24  34 S22       30.14F
MORRIS*        SUNNY     54  19  25 SE20G31   30.10F
ROMEOVILLE*    SUNNY     51  23  34 SE20G32   30.12F
NORTHERLY ISL    N/A     49  31  50 SE18        N/A
$$

LMZ740>746-170000-
SOUTHERN LAKE MICHIGAN

STATION/POSITION SKY/WX   TEMP    WIND        PRES    VSBY  WAVE
                          AIR SEA DIR/SP/G                  HT/PER
                          (F)     (DEG/KT/KT) (MB)    (MI)  (FT/S)
WAUKEGAN HARBOR            42     130/ 20/ 24 1021.7F
HARRISON CRIB              47     140/ 19/ 22   N/A
BURNHAM HARBOR             48     130/ 16/ 21   N/A
CALUMET HARBOR             50     140/ 12/ 19 1022.1F
MICHIGAN CITY              48     120/ 18/ 25   N/A
$$

ILZ025>027-034>036-040-047-049-050-058-095>099-170000-
WEST-CENTRAL ILLINOIS

CITY           SKY/WX    TMP DP  RH WIND       PRES   REMARKS
QUINCY         SUNNY     57  26  30 S23G29    29.96F
GALESBURG*     CLOUDY    53  29  40 SE16G29   29.98F
MACOMB*        PTSUNNY   55  28  35 SE22G33   30.00F
JACKSONVILLE*  SUNNY     55  27  34 SE20G29   30.04F
PITTSFIELD*    SUNNY     57  26  30 SE20G28   30.00F
$$

ILZ028>032-037-038-041>044-048-051>054-059>061-170000-
CENTRAL ILLINOIS

CITY           SKY/WX    TMP DP  RH WIND       PRES   REMARKS
PONTIAC        SUNNY     54  27  35 S24       30.10F
BLOOMINGTON    SUNNY     51  25  36 S28G33    30.09F
DECATUR        SUNNY     53  26  35 S22       30.11F
PEORIA         MOSUNNY   56  25  30 S24G32    30.05F
LACON*         SUNNY     52  28  39 S22G30    30.04F
LINCOLN*       SUNNY     54  26  33 S22G31    30.07F
SPRINGFIELD    SUNNY     55  26  32 SE24G33   30.07F
TAYLORVILLE    SUNNY     52  27  37 SE22      30.08F
$$

ILZ033-039-045-046-055>057-062-063-170000-
EAST-CENTRAL ILLINOIS

CITY           SKY/WX    TMP DP  RH WIND       PRES   REMARKS
CHAMPAIGN      SUNNY     52  24  33 S21G28    30.13F
RANTOUL*       SUNNY     54  24  31 SE17      30.15S
MATTOON        MOSUNNY   51  27  39 S17G26    30.13F
PARIS*         MOSUNNY   51  28  39 SE10G16   30.17S
$$

ILZ079-100>102-170000-
SOUTHWEST ILLINOIS

CITY           SKY/WX    TMP DP  RH WIND       PRES   REMARKS
ALTON          SUNNY     55  21  26 S17G23    30.07F
BELLEVILLE     MOSUNNY   57  25  29 SE15G23   30.08F
CAHOKIA*       MOSUNNY   55  24  30 S15G24    30.07F
SPARTA*        MOSUNNY   54  21  28 S12G20    30.11F
$$

ILZ064>066-069>071-074>076-080>082-084>086-088>090-092>094-170000-
SOUTH-CENTRAL ILLINOIS

CITY           SKY/WX    TMP DP  RH WIND       PRES   REMARKS
CARBONDALE     CLOUDY    54  25  32 SE13      30.13F
CAIRO*         PTSUNNY   58  29  32 SE8       30.14S
MARION         PTSUNNY   55  25  30 S12       30.13F
MT. VERNON     CLOUDY    55  27  33 SE7       30.15S
CENTRALIA*       N/A     54  26  35 SE13      30.12S
SALEM*         PTSUNNY   54  31  41 SE12      30.14S
METROPOLIS*    PTSUNNY   56  22  26 E7        30.13F
$$

ILZ067-068-072-073-078-083-087-091-170000-
SOUTHEAST ILLINOIS

CITY           SKY/WX    TMP DP  RH WIND       PRES   REMARKS
FAIRFIELD*     CLOUDY    54  30  40 SE13      30.16S
HARRISBURG*    PTSUNNY   54  30  40 SE9       30.15F
ROBINSON*      PTSUNNY   55  28  36 SE9G17    30.18S
CARMI*         PTSUNNY   55  33  44 SE13      30.15F
$$

ABBREVIATIONS USED IN REMARKS
   TC - TEMPERATURE IN CELSIUS
  WCI - WIND CHILL INDEX
   HX - HEAT INDEX
  VSB - VISIBILITY
$$




USA.gov is the U.S. government's official web portal to all federal, state and local government web resources and services.